Regional Weather Roundup
Issued by NWS

Home | Current Version | Previous Version | Graphics & Text | Print | Product List | Glossary On
Versions: 1 2 3 4 5 6 7 8 9 10 11 12 13 14 15 16 17 18 19 20 21 22 23 24 25 26 27 28 29 30 31 32 33 34 35 36 37 38 39 40 41 42 43 44 45 46 47 48 49 50
000
ASUS43 KOAX 011502
RWRNE

WEATHER ROUNDUP FOR NEBRASKA
NATIONAL WEATHER SERVICE OMAHA NE
900 AM CST WED MAR 01 2017

NOTES: SATELLITE DATA IS BEING USED TO AUGMENT CLOUD COVER ABOVE
       12000 FEET.
       "FAIR" INDICATES FEW OR NO CLOUDS BELOW 12,000 FEET WITH NO
       SIGNIFICANT WEATHER AND/OR OBSTRUCTIONS TO VISIBILITY.

  * THESE STATIONS DO NOT REPORT WEATHER SUCH AS RAIN...SNOW OR FOG.

NEZ001>004-019>022-054>056-011600-
NEBRASKA PANHANDLE

CITY           SKY/WX    TMP DP  RH WIND       PRES   REMARKS
SCOTTSBLUFF    SUNNY     23  10  57 NW10      30.16R WCI  12
ALLIANCE       SUNNY     17  10  74 W14       30.12R WCI   3
CHADRON        MOSUNNY   22  13  68 W10       30.14R WCI  11
KIMBALL        SUNNY     28  13  52 NW26G35   30.13R WCI  13
SIDNEY         SUNNY     28  12  51 NW25G31   30.14R WCI  13
$$

NEZ057>060-069>072-079>082-011600-
SOUTHWEST NEBRASKA

CITY           SKY/WX    TMP DP  RH WIND       PRES   REMARKS
NORTH PLATTE   SUNNY     32  17  54 NW18G29   30.13R WCI  20
IMPERIAL       SUNNY     32  12  43 NW20G29   30.16R WCI  20
LEXINGTON      SUNNY     31  18  58 NW18G29   30.11R WCI  20
MCCOOK         SUNNY     35  16  45 NW26G35   30.15R WCI  22
OGALLALA       SUNNY     33  15  47 NW22G30   30.15R WCI  20
$$

NEZ005>010-023>029-035>040-094-011600-
NORTH CENTRAL NEBRASKA

CITY           SKY/WX    TMP DP  RH WIND       PRES   REMARKS
VALENTINE      MOSUNNY   26  19  74 NW13      30.07R WCI  15
AINSWORTH      PTSUNNY   29  25  84 NW21      30.06R WCI  15
BROKEN BOW     SUNNY     31  20  63 NW17      30.08R WCI  19
O`NEILL        SUNNY     28  24  86 W14       30.04R WCI  16
ORD            SUNNY     27  20  75 NW14      30.06R WCI  16
THEDFORD       SUNNY     29  20  69 NW14G21   30.10R WCI  18
$$

NEZ041-046>049-061>064-073>077-083>087-011600-
SOUTH CENTRAL NEBRASKA

CITY           SKY/WX    TMP DP  RH WIND       PRES   REMARKS
GRAND ISLAND   SUNNY     29  25  85 NW16      30.07R WCI  17
AURORA         SUNNY     30  26  85 NW15      30.06R WCI  19
HASTINGS       SUNNY     31  22  69 NW16      30.08R WCI  20
HEBRON         SUNNY     32  25  76 NW14      30.09R WCI  22
HOLDREGE       SUNNY     33  17  50 NW24G30   30.10R WCI  21
KEARNEY *      SUNNY     30  16  55 NW18      30.09R WCI  18
YORK           MOSUNNY   30  27  86 NW23      30.05R WCI  17
$$

NEZ011>018-030>034-042>045-011600-
NORTHEAST NEBRASKA

CITY           SKY/WX    TMP DP  RH WIND       PRES   REMARKS
NORFOLK        CLOUDY    30  23  75 NW17G26   30.02R WCI  18
ALBION         MOSUNNY   31  24  73 NW21      30.03R WCI  19
BLAIR          PTSUNNY   32  27  81 NW20G29   29.98R WCI  20
FREMONT        PTSUNNY   33  27  80 NW20G25   30.02R WCI  21
TEKAMAH        CLOUDY    32  26  78 NW18G29   30.01R WCI  20
WAYNE          CLOUDY    30  25  83 NW15G21   30.02R WCI  19
$$

NEZ050>053-065>068-078-088>093-011600-
SOUTHEAST NEBRASKA

CITY           SKY/WX    TMP DP  RH WIND       PRES   REMARKS
LINCOLN        PTSUNNY   34  25  69 NW20      30.05R WCI  23
OMAHA EPPLEY   PTSUNNY   34  26  72 NW21      30.00R WCI  22
BEATRICE       MOSUNNY   35  27  73 NW17G25   30.05R WCI  24
FALLS CITY     PTSUNNY   37  28  70 NW18G26   30.01R WCI  27
NEBRASKA CITY  CLOUDY    34  25  70 NW22G30   30.00R WCI  22
PLATTSMOUTH    PTSUNNY   35  26  68 NW18G30   29.99R WCI  24
$$

NEZ044-045-051>053-067-011600-
OMAHA AREA

CITY           SKY/WX    TMP DP  RH WIND       PRES   REMARKS
OMAHA EPPLEY   PTSUNNY   34  26  72 NW21      30.00R WCI  22
BLAIR          PTSUNNY   32  27  81 NW20G29   29.98R WCI  20
FREMONT        PTSUNNY   33  27  80 NW20G25   30.02R WCI  21
MILLARD        MOSUNNY   36  27  70 NW21G30   30.01R WCI  24
OFFUTT AFB     PTSUNNY   34  26  71 NW24G31   29.99R WCI  22
PLATTSMOUTH    PTSUNNY   35  26  68 NW18G30   29.99R WCI  24
WAHOO          FAIR      34  26  71 NW23      30.01R WCI  22
$$




USA.gov is the U.S. government's official web portal to all federal, state and local government web resources and services.